DW0915 Weather Reports


Display with metric or nautical units.
time (UTC)temp
F
wind
direction
speed
MPH
gust
MPH
rain 1hr
in
rain 24hr
in
rain mn
in
humidity
%
barometer
mb
20181017141555 50 271 0.0 0.0 0.00 0.00 0.00 49 1017.6
20181017140125 50 271 0.0 0.0 0.00 0.00 0.00 49 1017.4
20181017134643 51 271 0.0 0.0 0.00 0.00 0.00 48 1017.4
20181017133102 51 271 0.0 0.0 0.00 0.00 0.00 48 1017.2
20181017131548 51 271 0.0 0.0 0.00 0.00 0.00 47 1017.1
20181017130049 51 271 0.0 0.0 0.00 0.00 0.00 45 1017.1
20181017124622 51 271 0.0 0.0 0.00 0.00 0.00 48 1016.9
20181017123040 50 271 0.0 0.0 0.00 0.00 0.00 50 1016.8
20181017121542 50 271 0.0 0.0 0.00 0.00 0.00 51 1016.7
20181017120041 50 271 0.0 0.0 0.00 0.00 0.00 52 1016.7
20181017114618 50 271 0.0 0.0 0.00 0.00 0.00 52 1016.6
20181017113031 50 271 0.0 0.0 0.00 0.00 0.00 51 1016.5
20181017111530 51 271 0.0 0.0 0.00 0.00 0.00 50 1016.5
20181017110031 52 271 0.0 0.0 0.00 0.00 0.00 48 1016.4
20181017104552 53 271 0.0 0.0 0.00 0.00 0.00 48 1016.4
20181017103052 52 271 0.0 0.0 0.00 0.00 0.00 50 1016.3
20181017101559 52 271 0.0 0.0 0.00 0.00 0.00 50 1016.4
20181017100024 53 271 0.0 0.0 0.00 0.00 0.00 48 1016.4
20181017094524 53 271 0.0 0.0 0.00 0.00 0.00 47 1016.5
20181017093018 53 271 0.0 0.0 0.00 0.00 0.00 48 1016.7
20181017091518 54 271 0.0 0.0 0.00 0.00 0.00 48 1016.8
20181017090030 54 271 0.0 0.0 0.00 0.00 0.00 49 1016.8
20181017084514 55 271 0.0 0.0 0.00 0.00 0.00 48 1016.8
20181017083014 55 271 0.0 0.0 0.00 0.00 0.00 48 1016.7
20181017081606 54 271 0.0 0.0 0.00 0.00 0.00 50 1016.7
20181017080015 56 271 0.0 0.0 0.00 0.00 0.00 48 1016.7
20181017074553 56 271 0.0 0.0 0.00 0.00 0.00 47 1016.8
20181017073144 56 271 0.0 0.0 0.00 0.00 0.00 48 1016.8
20181017071623 57 271 0.0 0.0 0.00 0.00 0.00 47 1016.9
20181017070151 58 271 0.0 0.0 0.00 0.00 0.00 45 1016.8
20181017064647 58 271 0.0 0.0 0.00 0.00 0.00 44 1016.8
20181017063101 58 271 0.0 0.0 0.00 0.00 0.00 45 1016.9
20181017061622 57 268 0.0 0.0 0.00 0.00 0.00 49 1016.9
20181017060144 56 268 0.0 0.0 0.00 0.00 0.00 52 1016.9
20181017054616 56 268 0.0 0.0 0.00 0.00 0.00 54 1017.1
20181017053114 56 268 0.0 0.0 0.00 0.00 0.00 55 1017.1
20181017051621 57 268 0.0 0.0 0.00 0.00 0.00 54 1017.0
20181017050059 58 268 0.0 0.0 0.00 0.00 0.00 54 1017.0
20181017044707 59 268 0.0 0.0 0.00 0.00 0.00 52 1016.7
20181017043112 59 268 0.0 0.0 0.00 0.00 0.00 51 1016.6
20181017041607 60 268 0.0 0.0 0.00 0.00 0.00 52 1016.6
20181017040135 61 268 0.0 0.0 0.00 0.00 0.00 51 1016.5
20181017034637 61 268 0.0 0.0 0.00 0.00 0.00 52 1016.4
20181017033135 61 268 0.0 0.0 0.00 0.00 0.00 53 1016.5
20181017031613 62 268 0.0 0.0 0.00 0.00 0.00 56 1016.3
20181017030100 63 268 0.0 0.0 0.00 0.00 0.00 55 1016.2
20181017024559 64 268 0.0 0.0 0.00 0.00 0.00 52 1015.8
20181017023049 65 268 0.0 0.0 0.00 0.00 0.00 49 1015.7
20181017021622 66 268 0.0 0.0 0.00 0.00 0.00 47 1015.6
20181017020211 68 268 0.0 0.0 0.00 0.00 0.00 44 1015.3
20181017014622 69 268 0.0 0.0 0.00 0.00 0.00 43 1015.2
20181017013113 70 268 0.0 0.0 0.00 0.00 0.00 41 1015.0
20181017011627 72 250 0.0 0.0 0.00 0.00 0.00 39 1014.8
20181017010131 74 213 0.0 0.0 0.00 0.00 0.00 35 1014.8
20181017004620 76 244 0.0 0.0 0.00 0.00 0.00 29 1014.6
20181017003108 78 217 0.0 0.0 0.00 0.00 0.00 24 1014.7
20181017001545 79 241 1.0 0.0 0.00 0.00 0.00 18 1014.7
20181017000112 80 240 1.0 0.0 0.00 0.00 0.00 18 1014.6
20181016234620 81 267 0.0 0.0 0.00 0.00 0.00 17 1014.5
20181016233138 82 249 1.0 0.0 0.00 0.00 0.00 16 1014.6
20181016231609 83 234 1.0 0.0 0.00 0.00 0.00 16 1014.6
20181016230044 85 302 0.0 0.0 0.00 0.00 0.00 12 1014.5
20181016224541 85 303 0.0 0.0 0.00 0.00 0.00 13 1014.6
20181016223108 85 10 0.0 0.0 0.00 0.00 0.00 13 1014.6
20181016221559 85 115 0.0 0.0 0.00 0.00 0.00 13 1014.6
20181016220051 85 76 0.0 0.0 0.00 0.00 0.00 13 1014.7
20181016214548 84 79 0.0 0.0 0.00 0.00 0.00 13 1014.8
20181016213052 84 51 0.0 0.0 0.00 0.00 0.00 13 1015.0
20181016211524 84 74 0.0 0.0 0.00 0.00 0.00 13 1015.0
20181016210028 84 79 0.0 0.0 0.00 0.00 0.00 13 1015.4
20181016204525 83 37 1.0 0.0 0.00 0.00 0.00 14 1015.5
20181016203031 83 74 1.0 0.0 0.00 0.00 0.00 14 1015.7
20181016201605 83 72 1.0 0.0 0.00 0.00 0.00 14 1016.0
20181016200033 82 80 1.0 0.0 0.00 0.00 0.00 14 1016.1
20181016194510 82 94 0.0 0.0 0.00 0.00 0.00 13 1016.4
20181016193020 81 49 2.0 0.0 0.00 0.00 0.00 14 1016.6
20181016191509 81 60 1.0 0.0 0.00 0.00 0.00 14 1016.8
20181016190008 80 80 1.0 0.0 0.00 0.00 0.00 14 1016.9
20181016184501 80 90 1.0 0.0 0.00 0.00 0.00 14 1017.0
20181016183111 79 101 1.0 0.0 0.00 0.00 0.00 14 1017.4
20181016181648 78 78 3.0 0.0 0.00 0.00 0.00 13 1017.7
20181016180204 78 79 1.0 0.0 0.00 0.00 0.00 14 1017.7
20181016174609 77 105 0.0 0.0 0.00 0.00 0.00 13 1017.9
20181016173111 76 98 0.0 0.0 0.00 0.00 0.00 13 1018.2
20181016171723 76 98 0.0 0.0 0.00 0.00 0.00 13 1018.2
20181016170102 75 83 1.0 0.0 0.00 0.00 0.00 13 1018.4
20181016164626 75 65 0.0 0.0 0.00 0.00 0.00 13 1018.5
20181016163135 74 93 0.0 0.0 0.00 0.00 0.00 14 1018.5
20181016161617 73 69 0.0 0.0 0.00 0.00 0.00 15 1018.6
20181016160058 71 67 0.0 0.0 0.00 0.00 0.00 19 1018.5
20181016154546 67 67 0.0 0.0 0.00 0.00 0.00 22 1018.3
20181016153057 64 67 0.0 0.0 0.00 0.00 0.00 24 1018.1
20181016151555 62 67 0.0 0.0 0.00 0.00 0.00 25 1018.0
20181016150041 60 67 0.0 0.0 0.00 0.00 0.00 27 1017.9
20181016144534 59 67 0.0 0.0 0.00 0.00 0.00 28 1017.7
20181016143019 60 67 0.0 0.0 0.00 0.00 0.00 30 1017.5